User: anonymous   Login
Location: *
(37.5724°S, 58.0067°E)
Time: 08:09:43
(UTC+00:00)
Language:

H-2A ROCKET BODY - Orbit

View from above orbital plane
View from above orbital plane
View from above satellite
View from above satellite

Ground track
Ground track

The orbit data is extracted from the following two-line orbital elements,

1 29657U 06059B   20329.06131826 +.00020794 +00000-0 +82739-3 0  9996
2 29657 028.6931 337.0849 5320901 297.1697 018.7967 05.18168831202301
Epoch (UTC): 24 November 2020 01:28:17
Eccentricity: 0.5320901
inclination: 28.6931°
perigee height: 222 km
apogee height: 15234 km
right ascension of ascending node: 337.0849°
argument of perigee: 297.1697°
revolutions per day: 5.18168831
mean anomaly at epoch: 18.7967°
orbit number at epoch: 20230

The dashed part of the orbit path shows where the satellite is in the earth's shadow,  

DLR